Temp
9 9 9 9 9 8 7 7 7 7 7 6 5 5 4 3 2 1 1 0 0 -0 -1 -2 -2 -2 -2 -1 -0 0 1 1
9 9 9 8 8 8 7 7 6 6 6 5 4 2 2 1 1 0 -0 -1 -1 -2 -2 -3 -3 -2 -2 -1 -1 -0 0 1
7 7 8 8 7 7 6 5 5 4 4 4 3 2 1 1 -0 -0 -1 -1 -2 -3 -3 -3 -3 -3 -2 -2 -1 -1 0 1
7 6 6 7 6 6 5 4 4 3 3 4 4 3 1 0 -1 -1 -2 -2 -2 -3 -3 -4 -4 -3 -3 -3 -2 -2 -1 -0
6 5 4 5 5 5 4 4 4 3 3 3 2 -0 -1 -2 -2 -2 -3 -3 -3 -3 -3 -4 -4 -4 -4 -3 -2 -2 -1 -0
5 4 4 4 4 4 4 4 3 2 2 1 0 -1 -2 -2 -2 -3 -4 -3 -3 -3 -4 -5 -5 -4 -5 -4 -3 -2 -2 -1
5 4 3 3 3 3 3 3 2 1 1 0 -0 -1 -2 -3 -3 -4 -4 -4 -4 -4 -5 -5 -5 -5 -5 -4 -4 -3 -3 -2
4 3 2 2 2 2 3 2 1 0 -0 -1 -1 -2 -3 -3 -4 -4 -4 -5 -5 -5 -6 -6 -6 -6 -6 -5 -5 -4 -4 -4
4 2 2 1 2 2 2 1 -0 -1 -1 -1 -1 -2 -3 -4 -4 -4 -5 -6 -6 -6 -7 -6 -6 -6 -6 -6 -6 -6 -5 -5
3 2 1 1 1 1 1 -0 -1 -1 -1 -2 -2 -3 -3 -4 -4 -5 -5 -6 -6 -6 -7 -6 -6 -5 -6 -7 -7 -7 -7 -6
2 0 0 0 0 0 0 -0 -1 -1 -2 -2 -3 -3 -4 -4 -4 -5 -5 -6 -6 -6 -8 -7 -6 -6 -6 -7 -8 -8 -8 -8
1 -1 -0 -0 -0 0 0 -1 -1 -1 -2 -3 -3 -4 -4 -4 -5 -5 -6 -6 -6 -6 -7 -7 -7 -6 -7 -7 -9 -9 -9 -8
0 -1 -1 -1 -0 -0 -0 -1 -1 -1 -2 -2 -3 -4 -4 -4 -5 -6 -6 -6 -6 -6 -6 -7 -7 -7 -7 -8 -9 -9 -9 -9
-2 -2 -2 -1 -1 -1 -1 -1 -1 -1 -1 -2 -3 -4 -4 -5 -5 -5 -6 -6 -7 -7 -7 -7 -7 -8 -8 -8 -9 -9 -9 -10
-2 -3 -2 -1 -1 -0 -1 -1 -1 -1 -1 -2 -3 -3 -4 -5 -5 -5 -6 -6 -7 -7 -7 -7 -7 -7 -8 -8 -8 -9 -9 -9
0 -2 -3 -1 -1 -0 -0 0 -0 -1 -1 -1 -2 -3 -4 -5 -5 -6 -6 -7 -7 -7 -7 -7 -7 -7 -7 -8 -8 -9 -9 -9
2 1 -1 -1 -0 0 1 1 0 -0 -1 -2 -2 -3 -4 -5 -5 -6 -6 -7 -7 -7 -7 -7 -7 -7 -7 -8 -9 -9 -9 -9
3 1 -0 -0 0 1 1 1 0 -1 -1 -2 -3 -3 -4 -4 -5 -6 -6 -7 -7 -7 -7 -7 -7 -7 -7 -8 -9 -9 -9 -9
1 -0 -0 0 1 1 0 -0 -1 -1 -2 -2 -3 -3 -4 -4 -5 -6 -6 -7 -7 -8 -8 -8 -7 -7 -7 -8 -9 -9 -9 -9
Height
814 815 818 819 820 822 823 823 821 820 818 817 813 811 809 807 805 802 798 797 793 792 789 785 780 775 772 767 763 760 755 750
813 816 818 818 819 820 822 822 822 820 816 815 814 812 810 808 807 804 801 798 794 792 789 785 781 777 773 769 763 759 753 749
815 817 819 818 819 820 821 821 822 820 817 816 815 812 810 809 807 806 802 799 796 794 790 786 782 779 774 769 765 760 755 751
813 817 818 817 817 819 822 823 821 819 818 817 815 812 811 809 808 807 803 800 799 795 791 788 783 780 772 769 767 763 757 752
812 816 818 815 817 819 819 822 821 818 818 817 815 814 813 812 810 807 805 803 801 797 793 789 785 779 772 770 769 763 759 754
813 816 816 816 818 820 818 819 820 820 821 818 816 815 816 814 811 808 808 806 802 797 794 789 785 776 775 772 769 763 759 756
812 814 816 816 818 819 819 818 821 823 822 819 817 816 816 814 812 809 808 807 802 799 795 790 785 777 775 773 770 764 760 756
812 812 814 816 819 818 817 821 823 823 821 819 818 818 818 815 815 811 809 807 804 800 796 792 784 779 777 775 771 764 760 757
808 810 812 814 816 816 820 823 823 823 821 820 819 819 818 817 815 813 812 810 806 802 799 793 785 780 779 777 772 766 762 758
806 809 810 814 814 817 820 823 823 824 821 821 822 820 818 816 815 815 814 812 807 802 800 794 786 782 782 778 774 768 764 760
804 808 811 814 816 818 821 822 822 822 822 821 823 822 821 818 816 816 815 812 808 804 801 797 789 785 783 779 776 772 766 761
801 806 810 813 816 818 819 822 822 822 822 824 825 825 823 820 819 818 817 814 810 807 803 799 793 789 786 782 779 775 770 764
798 804 808 811 814 817 819 821 822 822 823 824 824 826 826 824 821 820 818 815 812 810 806 801 796 793 791 785 782 778 773 769
800 803 806 809 813 816 818 819 820 821 822 823 823 826 827 827 824 821 819 817 815 813 808 802 799 798 795 789 786 782 777 773
799 802 803 807 810 813 815 817 819 820 821 823 823 825 827 827 826 823 821 820 818 814 809 806 803 801 798 795 790 785 781 776
794 797 801 804 806 810 813 814 817 818 820 823 823 824 826 827 827 825 823 822 820 817 812 809 807 805 803 799 795 790 784 780
787 792 797 800 802 806 809 810 813 816 819 822 822 823 825 826 827 827 826 824 822 818 815 813 811 809 807 804 800 793 788 784
780 785 789 795 800 803 806 808 811 814 818 821 822 823 824 826 827 827 827 826 824 820 818 816 813 813 811 808 803 797 792 788
777 782 787 792 798 802 805 807 810 814 817 820 821 823 824 826 827 827 828 827 825 823 821 819 817 815 814 810 806 801 797 793
Wind_Speed
20 20 18 17 14 12 11 10 11 11 11 9 11 14 16 18 21 22 23 25 25 24 23 28 27 25 24 27 23 24 23 25
19 19 17 18 14 12 10 9 11 12 14 13 9 11 16 18 20 22 23 24 26 26 24 28 26 23 23 23 23 23 25 24
13 16 15 15 14 12 10 10 10 13 15 13 7 9 10 15 16 19 21 22 25 24 23 27 25 24 22 24 24 23 23 21
9 13 15 15 14 13 10 9 10 12 14 12 11 7 11 16 19 18 20 22 23 24 22 24 23 20 23 26 24 21 20 22
8 13 14 15 15 13 12 8 9 13 13 14 15 14 11 12 14 16 17 20 22 23 22 23 22 21 25 25 24 22 21 18
10 12 15 14 14 12 11 8 9 10 11 12 11 12 11 11 14 15 14 17 21 23 23 23 22 25 24 24 26 21 21 20
11 15 15 15 13 12 10 8 7 6 9 12 13 13 11 13 15 17 16 17 21 22 22 24 24 25 24 23 23 21 21 20
9 11 14 14 12 11 9 6 7 5 8 11 12 11 11 13 13 15 17 18 20 21 20 23 24 23 23 20 21 23 23 21
11 12 16 14 12 10 7 7 7 6 8 10 11 11 11 12 13 14 15 16 16 17 18 21 24 24 21 19 20 20 22 23
10 14 15 14 12 11 10 9 9 7 9 10 12 12 12 14 13 13 14 14 14 17 16 25 23 23 22 21 22 23 21 23
8 11 15 13 14 12 10 9 10 9 9 9 11 12 13 14 16 17 14 14 15 18 15 22 26 24 22 21 22 24 24 25
8 12 16 15 13 12 11 10 10 10 10 10 10 12 13 14 14 15 16 14 16 18 20 21 30 26 26 23 22 26 23 25
8 15 18 17 15 14 14 14 13 12 10 9 10 10 12 16 16 15 17 18 16 18 19 21 27 30 25 27 25 27 29 25
7 12 14 19 17 17 16 17 14 12 11 10 9 8 8 13 16 15 17 18 18 17 20 24 25 25 28 27 27 26 28 26
7 7 14 19 17 17 16 15 14 13 11 10 9 8 7 9 12 16 16 16 19 21 22 22 24 24 25 26 27 29 28 29
11 8 11 18 17 17 17 15 16 14 11 10 8 8 9 8 9 13 15 15 16 19 23 24 23 23 22 23 26 28 29 31
13 12 15 16 19 20 17 16 18 16 13 12 10 11 11 9 8 10 13 15 16 17 20 21 23 21 19 20 22 28 29 28
13 12 17 18 18 20 20 20 20 18 17 15 13 12 12 10 8 7 9 13 16 18 18 19 19 19 18 18 20 26 29 29
9 13 16 21 20 22 24 23 23 21 18 16 13 12 11 10 8 6 7 9 13 15 17 17 18 16 17 18 17 22 26 28
Wind_Direction
148 136 129 124 113 103 101 83 60 44 43 49 48 43 36 32 30 26 24 21 17 10 0 355 354 347 340 342 335 330 324 319
145 136 131 122 109 100 92 74 49 31 30 30 25 32 29 30 27 23 22 18 15 12 359 357 356 347 339 337 335 330 327 327
140 137 131 114 105 102 94 71 51 40 36 36 38 36 24 28 23 23 20 19 13 7 4 358 357 345 342 345 339 329 326 331
142 132 129 118 104 107 100 80 60 46 34 25 31 34 22 16 13 17 15 19 11 9 10 357 355 347 350 344 335 335 322 323
131 142 132 114 111 113 107 90 51 35 24 25 33 37 31 12 5 10 7 15 12 11 11 4 354 356 359 347 332 336 326 319
148 145 135 124 124 118 104 81 52 35 24 33 43 44 27 15 14 12 7 4 11 11 14 6 355 6 357 354 339 346 345 331
140 147 143 128 131 128 108 74 66 56 38 41 39 36 30 22 19 17 8 1 9 10 16 7 9 9 1 359 349 355 354 343
155 164 155 151 143 125 100 98 94 70 51 49 42 39 36 31 22 19 12 8 6 5 5 6 16 13 6 6 357 5 1 354
177 171 170 158 144 123 125 128 120 96 72 61 55 53 47 39 29 24 20 15 9 8 11 15 23 24 17 9 10 12 5 3
179 177 163 158 142 144 149 143 123 109 90 80 62 57 55 50 41 30 24 24 19 22 23 25 26 27 24 23 14 19 15 9
166 151 157 160 151 145 145 141 129 107 95 84 73 63 58 55 50 40 33 31 32 31 23 26 33 31 27 28 16 20 21 20
152 151 166 160 156 155 150 148 137 120 105 99 87 69 59 55 50 42 38 40 42 42 43 41 37 33 33 34 28 18 14 18
152 158 164 165 167 170 170 159 151 135 125 119 103 81 64 57 56 51 44 46 46 46 47 45 41 34 32 37 32 26 24 11
145 155 168 176 181 179 176 173 163 153 144 137 126 120 87 64 55 54 51 52 52 50 50 48 42 33 31 37 38 33 29 22
164 168 176 187 187 186 186 181 178 172 165 157 154 153 128 88 62 55 54 56 55 54 53 51 46 39 32 36 40 40 31 30
192 188 187 188 187 190 191 190 188 181 175 179 176 164 148 122 82 62 59 59 59 57 57 52 47 40 33 28 38 39 36 29
198 193 186 190 192 192 190 190 187 177 175 161 148 152 155 146 118 82 67 64 63 61 59 57 49 44 35 33 35 41 39 32
194 185 182 187 190 186 175 166 163 164 162 158 149 144 147 157 143 110 78 65 60 59 57 55 54 43 35 33 34 43 42 37
170 167 174 188 182 174 165 161 159 159 160 160 157 149 146 148 147 145 104 72 61 55 53 54 51 43 36 34 36 45 43 42